Norwood, MA

12:06 AM EST on February 11, 2016 (GMT -0500)
Norwood Memorial

Weather History for KOWD - December, 2012

Change the Weather History Date:

Sunday, December 23, 2012

  Actual Average (WUND) Record (WUND)
Temperature  
Mean Temperature 32 °F -  
Max Temperature 41 °F - - (-1)
Min Temperature 23 °F - - (-1)
Degree Days  
Heating Degree Days 33    
Moisture  
Dew Point 18 °F    
Average Humidity 54    
Maximum Humidity 75    
Minimum Humidity 41    
Precipitation  
Precipitation 0.00 in - - ()
Sea Level Pressure  
Sea Level Pressure 29.81 in    
Wind  
Wind Speed 8 mph (WSW)    
Max Wind Speed 14 mph    
Max Gust Speed 28 mph    
Visibility 10 miles    
Events      
Averages and records for this station are not official NWS values.
T = Trace of Precipitation, MM = Missing Value Source: NWS Daily Summary

Daily Weather History Graph

Daily Weather History Graph

Search for Another Location

Airport or City:

Trip Planner

Search our weather history database for the weather conditions in past years. The results will help you decide how hot, cold, wet, or windy it might be!

Date:

Astronomy

Dec. 23, 2012 Rise Set
Actual Time 7:11 AM EST 4:17 PM EST
Civil Twilight 6:39 AM EST 4:48 PM EST
Nautical Twilight 6:03 AM EST 5:24 PM EST
Astronomical Twilight 5:29 AM EST 5:58 PM EST
Moon 1:08 PM EST (12/23) 2:48 AM EST (12/23)
Length of Visible Light 10h 09m
Length of Day
9h 05m
Waxing Gibbous, 81% of the Moon is Illuminated
Dec 23
Waxing Gibbous
Dec 28
Full
Jan 4
Last Quarter
Jan 11
New
Jan 18
First Quarter

Hourly Weather History & Observations

Time (EST) Temp. Windchill Dew Point Humidity Pressure Visibility Wind Dir Wind Speed Gust Speed Precip Events Conditions
12:53 AM 30.9 °F 20.7 °F 12.9 °F 47% 29.67 in 10.0 mi WNW 13.8 mph 27.6 mph N/A   Clear
1:53 AM 30.0 °F 23.2 °F 14.0 °F 51% 29.70 in 10.0 mi WNW 6.9 mph - N/A   Clear
2:53 AM 30.9 °F 22.8 °F 14.0 °F 50% 29.72 in 10.0 mi WNW 9.2 mph 18.4 mph N/A   Clear
3:53 AM 30.9 °F 21.7 °F 14.0 °F 50% 29.75 in 10.0 mi West 11.5 mph - N/A   Clear
4:53 AM 28.0 °F 24.2 °F 14.0 °F 56% 29.76 in 10.0 mi West 3.5 mph - N/A   Clear
5:53 AM 25.0 °F 20.7 °F 16.0 °F 69% 29.79 in 10.0 mi SSW 3.5 mph - N/A   Clear
6:53 AM 23.0 °F - 16.0 °F 74% 29.81 in 10.0 mi Calm Calm - N/A   Clear
7:53 AM 30.9 °F 22.8 °F 17.1 °F 57% 29.83 in 10.0 mi West 9.2 mph - N/A   Clear
8:53 AM 34.0 °F 28.8 °F 16.0 °F 48% 29.84 in 10.0 mi WSW 5.8 mph - N/A   Clear
9:53 AM 36.0 °F 27.5 °F 15.1 °F 43% 29.86 in 10.0 mi West 12.7 mph 21.9 mph N/A   Clear
10:53 AM 37.9 °F 29.6 °F 16.0 °F 41% 29.86 in 10.0 mi WSW 13.8 mph - N/A   Clear
11:53 AM 37.9 °F 30.0 °F 17.1 °F 43% 29.83 in 10.0 mi West 12.7 mph 24.2 mph N/A   Partly Cloudy
12:53 PM 37.9 °F 29.6 °F 19.9 °F 48% 29.82 in 10.0 mi WSW 13.8 mph 18.4 mph N/A   Mostly Cloudy
1:53 PM 39.0 °F 32.3 °F 21.0 °F 49% 29.81 in 10.0 mi WSW 10.4 mph 20.7 mph N/A   Mostly Cloudy
2:53 PM 41.0 °F 34.3 °F 21.0 °F 45% 29.81 in 10.0 mi WSW 11.5 mph 16.1 mph N/A   Mostly Cloudy
3:53 PM 39.0 °F 33.4 °F 21.0 °F 49% 29.81 in 10.0 mi West 8.1 mph - N/A   Mostly Cloudy
4:53 PM 37.0 °F 34.5 °F 19.9 °F 50% 29.82 in 10.0 mi WSW 3.5 mph - N/A   Overcast
5:53 PM 28.9 °F - 19.9 °F 69% 29.83 in 10.0 mi Calm Calm - N/A   Clear
6:53 PM 30.0 °F - 23.0 °F 75% 29.84 in 10.0 mi Calm Calm - N/A   Mostly Cloudy
7:53 PM 34.0 °F 31.0 °F 21.9 °F 61% 29.84 in 10.0 mi WSW 3.5 mph - N/A   Overcast
8:53 PM 36.0 °F 33.3 °F 21.9 °F 57% 29.85 in 10.0 mi WSW 3.5 mph - N/A   Overcast
9:53 PM 35.1 °F 30.1 °F 21.0 °F 57% 29.86 in 10.0 mi SW 5.8 mph - N/A   Clear
10:53 PM 33.1 °F 28.7 °F 19.9 °F 59% 29.88 in 10.0 mi WSW 4.6 mph - N/A   Clear
11:53 PM 32.0 °F 27.5 °F 19.0 °F 59% 29.88 in 10.0 mi WSW 4.6 mph - N/A   Clear